Location: Seattle
(47.6064°N, 122.3308°W)
Time: 02:49:52
(UTC-08:00)

A-11 Canister half - Pass Details

Date: 04 December 2020
Orbit: 1524 x 1684 km, 47.3° (Epoch: 21 January)

Event Time Altitude Azimuth Distance (km) Brightness Sun altitude
Rises 06:57:22 0° 263° (W) 4,937 - -7.2°
Exits shadow 06:57:25 - 263° (W) 4,918 11.1 -7.2°
Reaches altitude 10° 07:00:32 10° 264° (W) 3,946 10.6 -6.7°
Maximum altitude 07:10:44 89° 178° (S) 1,668 9.3 -5.2°
Drops below altitude 10° 07:20:42 10° 89° (E) 3,859 12.2 -3.7°
Sets 07:23:46 0° 89° (E) 4,824 12.8 -3.3°
